| time (UTC) | temp F | wind direction | speed MPH | gust MPH | rain 1hr in | rain 24hr in | rain mn in | humidity % | barometer mb |
| 20260510173036 | 71 | 134 | 2.0 | 0.0 | 0.00 | 0.00 | 0.00 | 23 | 1017.2 |
| 20260510171529 | 70 | 213 | 3.0 | 0.0 | 0.00 | 0.00 | 0.00 | 25 | 1017.1 |
| 20260510170027 | 70 | 213 | 1.0 | 0.0 | 0.00 | 0.00 | 0.00 | 26 | 1017.2 |
| 20260510164526 | 68 | 213 | 3.0 | 0.0 | 0.00 | 0.00 | 0.00 | 25 | 1017.1 |
| 20260510163016 | 68 | 38 | 1.0 | 0.0 | 0.00 | 0.00 | 0.00 | 27 | 1017.2 |
| 20260510161549 | 66 | 36 | 1.0 | 0.0 | 0.00 | 0.00 | 0.00 | 26 | 1017.1 |
| 20260510160038 | 65 | 34 | 1.0 | 0.0 | 0.00 | 0.00 | 0.00 | 31 | 1017.1 |
| 20260510154514 | 63 | 34 | 1.0 | 0.0 | 0.00 | 0.00 | 0.00 | 33 | 1017.2 |
| 20260510153005 | 61 | 32 | 2.0 | 0.0 | 0.00 | 0.00 | 0.00 | 35 | 1017.3 |
| 20260510151547 | 60 | 30 | 1.0 | 0.0 | 0.00 | 0.00 | 0.00 | 34 | 1017.3 |
| 20260510150006 | 59 | 30 | 0.0 | 0.0 | 0.00 | 0.00 | 0.00 | 33 | 1017.4 |
| 20260510144610 | 59 | 29 | 1.0 | 0.0 | 0.00 | 0.00 | 0.00 | 34 | 1017.3 |
| 20260510143101 | 58 | 29 | 0.0 | 0.0 | 0.00 | 0.00 | 0.00 | 34 | 1017.2 |
| 20260510141542 | 56 | 30 | 0.0 | 0.0 | 0.00 | 0.00 | 0.00 | 40 | 1017.1 |
| 20260510140027 | 53 | 29 | 0.0 | 0.0 | 0.00 | 0.00 | 0.00 | 47 | 1017.0 |
| 20260510134514 | 50 | 30 | 0.0 | 0.0 | 0.00 | 0.00 | 0.00 | 54 | 1017.0 |
| 20260510133058 | 48 | 30 | 0.0 | 0.0 | 0.00 | 0.00 | 0.00 | 53 | 1016.7 |
| 20260510131541 | 48 | 29 | 0.0 | 0.0 | 0.00 | 0.00 | 0.00 | 50 | 1016.7 |
| 20260510130037 | 48 | 30 | 0.0 | 0.0 | 0.00 | 0.00 | 0.00 | 49 | 1016.5 |
| 20260510124507 | 48 | 29 | 0.0 | 0.0 | 0.00 | 0.00 | 0.00 | 47 | 1016.3 |
| 20260510123057 | 47 | 29 | 0.0 | 0.0 | 0.00 | 0.00 | 0.00 | 48 | 1016.2 |
| 20260510121556 | 47 | 30 | 0.0 | 0.0 | 0.00 | 0.00 | 0.00 | 46 | 1016.2 |
| 20260510120046 | 48 | 30 | 0.0 | 0.0 | 0.00 | 0.00 | 0.00 | 46 | 1016.0 |
| 20260510114530 | 48 | 30 | 0.0 | 0.0 | 0.00 | 0.00 | 0.00 | 45 | 1016.0 |
| 20260510113052 | 49 | 30 | 0.0 | 0.0 | 0.00 | 0.00 | 0.00 | 44 | 1015.8 |
| 20260510111534 | 48 | 30 | 0.0 | 0.0 | 0.00 | 0.00 | 0.00 | 44 | 1015.8 |
| 20260510110012 | 49 | 30 | 0.0 | 0.0 | 0.00 | 0.00 | 0.00 | 45 | 1015.9 |
| 20260510104509 | 49 | 29 | 0.0 | 0.0 | 0.00 | 0.00 | 0.00 | 43 | 1015.9 |
| 20260510103052 | 49 | 29 | 0.0 | 0.0 | 0.00 | 0.00 | 0.00 | 41 | 1015.9 |
| 20260510101544 | 49 | 30 | 0.0 | 0.0 | 0.00 | 0.00 | 0.00 | 42 | 1015.9 |
| 20260510100109 | 49 | 29 | 0.0 | 0.0 | 0.00 | 0.00 | 0.00 | 41 | 1015.7 |
| 20260510094531 | 50 | 30 | 0.0 | 0.0 | 0.00 | 0.00 | 0.00 | 42 | 1015.5 |
| 20260510093024 | 50 | 30 | 0.0 | 0.0 | 0.00 | 0.00 | 0.00 | 43 | 1015.5 |
| 20260510091508 | 50 | 30 | 0.0 | 0.0 | 0.00 | 0.00 | 0.00 | 41 | 1015.4 |
| 20260510090004 | 50 | 30 | 0.0 | 0.0 | 0.00 | 0.00 | 0.00 | 40 | 1015.2 |
| 20260510084536 | 51 | 30 | 0.0 | 0.0 | 0.00 | 0.00 | 0.00 | 39 | 1015.2 |
| 20260510083026 | 51 | 30 | 0.0 | 0.0 | 0.00 | 0.00 | 0.00 | 40 | 1015.1 |
| 20260510081524 | 51 | 29 | 0.0 | 0.0 | 0.00 | 0.00 | 0.00 | 39 | 1014.9 |
| 20260510080002 | 51 | 30 | 0.0 | 0.0 | 0.00 | 0.00 | 0.00 | 39 | 1015.0 |
| 20260510074551 | 52 | 29 | 0.0 | 0.0 | 0.00 | 0.00 | 0.00 | 38 | 1014.7 |
| 20260510073032 | 53 | 30 | 0.0 | 0.0 | 0.00 | 0.00 | 0.00 | 37 | 1014.8 |
| 20260510071543 | 53 | 29 | 0.0 | 0.0 | 0.00 | 0.00 | 0.00 | 36 | 1014.6 |
| 20260510070022 | 53 | 29 | 0.0 | 0.0 | 0.00 | 0.00 | 0.00 | 36 | 1014.3 |
| 20260510064604 | 54 | 30 | 0.0 | 0.0 | 0.00 | 0.00 | 0.00 | 35 | 1014.4 |
| 20260510063045 | 55 | 30 | 0.0 | 0.0 | 0.00 | 0.00 | 0.00 | 34 | 1014.0 |
| 20260510061541 | 56 | 30 | 0.0 | 0.0 | 0.00 | 0.00 | 0.00 | 33 | 1014.0 |
| 20260510060028 | 58 | 29 | 0.0 | 0.0 | 0.00 | 0.00 | 0.00 | 31 | 1013.8 |
| 20260510054506 | 60 | 29 | 0.0 | 0.0 | 0.00 | 0.00 | 0.00 | 28 | 1013.6 |
| 20260510053003 | 61 | 32 | 3.0 | 0.0 | 0.00 | 0.00 | 0.00 | 25 | 1013.3 |
| 20260510051548 | 60 | 27 | 2.0 | 0.0 | 0.00 | 0.00 | 0.00 | 27 | 1013.2 |
| 20260510050030 | 61 | 27 | 1.0 | 0.0 | 0.00 | 0.00 | 0.00 | 27 | 1013.3 |
| 20260510044606 | 61 | 27 | 2.0 | 0.0 | 0.00 | 0.00 | 0.00 | 26 | 1013.2 |
| 20260510043034 | 60 | 26 | 0.0 | 0.0 | 0.00 | 0.00 | 0.00 | 27 | 1013.2 |
| 20260510041509 | 60 | 27 | 1.0 | 0.0 | 0.00 | 0.00 | 0.00 | 26 | 1013.3 |
| 20260510040044 | 60 | 27 | 1.0 | 0.0 | 0.00 | 0.00 | 0.00 | 27 | 1012.9 |
| 20260510034543 | 60 | 26 | 0.0 | 0.0 | 0.00 | 0.00 | 0.00 | 27 | 1012.8 |
| 20260510033051 | 60 | 27 | 0.0 | 0.0 | 0.00 | 0.00 | 0.00 | 29 | 1012.5 |
| 20260510031534 | 61 | 27 | 0.0 | 0.0 | 0.00 | 0.00 | 0.00 | 27 | 1012.3 |
| 20260510024558 | 63 | 27 | 0.0 | 0.0 | 0.00 | 0.00 | 0.00 | 25 | 1011.8 |
| 20260510023042 | 65 | 27 | 0.0 | 0.0 | 0.00 | 0.00 | 0.00 | 24 | 1011.8 |
| 20260510021526 | 67 | 26 | 0.0 | 0.0 | 0.00 | 0.00 | 0.00 | 22 | 1011.6 |
| 20260510020014 | 69 | 27 | 0.0 | 0.0 | 0.00 | 0.00 | 0.00 | 20 | 1011.6 |
| 20260510014601 | 70 | 26 | 0.0 | 0.0 | 0.00 | 0.00 | 0.00 | 19 | 1011.5 |
| 20260510013054 | 71 | 26 | 1.0 | 0.0 | 0.00 | 0.00 | 0.00 | 17 | 1011.6 |
| 20260510011554 | 71 | 26 | 0.0 | 0.0 | 0.00 | 0.00 | 0.00 | 18 | 1011.7 |
| 20260510010031 | 71 | 27 | 1.0 | 0.0 | 0.00 | 0.00 | 0.00 | 17 | 1011.8 |
| 20260510004526 | 71 | 27 | 2.0 | 0.0 | 0.00 | 0.00 | 0.00 | 17 | 1011.9 |
| 20260510003045 | 71 | 30 | 1.0 | 0.0 | 0.00 | 0.00 | 0.00 | 17 | 1011.9 |
| 20260510001554 | 71 | 30 | 2.0 | 0.0 | 0.00 | 0.00 | 0.00 | 17 | 1011.9 |
| 20260510000040 | 72 | 45 | 1.0 | 0.0 | 0.00 | 0.00 | 0.00 | 17 | 1012.0 |
| 20260509234523 | 72 | 21 | 2.0 | 0.0 | 0.00 | 0.00 | 0.00 | 18 | 1011.9 |
| 20260509233005 | 73 | 17 | 2.0 | 0.0 | 0.00 | 0.00 | 0.00 | 17 | 1011.9 |
| 20260509231551 | 73 | 18 | 3.0 | 0.0 | 0.00 | 0.00 | 0.00 | 19 | 1011.8 |
| 20260509230056 | 73 | 34 | 2.0 | 0.0 | 0.00 | 0.00 | 0.00 | 20 | 1012.1 |
| 20260509224536 | 74 | 22 | 3.0 | 0.0 | 0.00 | 0.00 | 0.00 | 18 | 1012.3 |
| 20260509223028 | 73 | 5 | 2.0 | 0.0 | 0.00 | 0.00 | 0.00 | 21 | 1012.5 |
| 20260509221511 | 73 | 9 | 2.0 | 0.0 | 0.00 | 0.00 | 0.00 | 21 | 1012.4 |
| 20260509220056 | 74 | 219 | 2.0 | 0.0 | 0.00 | 0.00 | 0.00 | 21 | 1012.6 |
| 20260509214533 | 74 | 97 | 2.0 | 0.0 | 0.00 | 0.00 | 0.00 | 21 | 1012.6 |
| 20260509213018 | 73 | 251 | 2.0 | 0.0 | 0.00 | 0.00 | 0.00 | 22 | 1012.9 |
| 20260509211502 | 72 | 21 | 2.0 | 0.0 | 0.00 | 0.00 | 0.00 | 20 | 1012.8 |
| 20260509210055 | 72 | 10 | 2.0 | 0.0 | 0.00 | 0.00 | 0.00 | 21 | 1012.9 |
| 20260509204547 | 71 | 22 | 2.0 | 0.0 | 0.00 | 0.00 | 0.00 | 22 | 1012.9 |
| 20260509203033 | 71 | 5 | 2.0 | 0.0 | 0.00 | 0.00 | 0.00 | 21 | 1013.2 |
| 20260509201528 | 71 | 355 | 3.0 | 0.0 | 0.00 | 0.00 | 0.00 | 21 | 1013.2 |
| 20260509200103 | 71 | 322 | 2.0 | 0.0 | 0.00 | 0.00 | 0.00 | 21 | 1013.2 |
| 20260509194537 | 71 | 345 | 2.0 | 0.0 | 0.00 | 0.00 | 0.00 | 21 | 1013.5 |
| 20260509193026 | 70 | 236 | 3.0 | 0.0 | 0.00 | 0.00 | 0.00 | 21 | 1013.3 |
| 20260509191507 | 70 | 217 | 1.0 | 0.0 | 0.00 | 0.00 | 0.00 | 21 | 1013.4 |
| 20260509190050 | 69 | 17 | 3.0 | 0.0 | 0.00 | 0.00 | 0.00 | 21 | 1013.8 |
| 20260509184546 | 69 | 240 | 3.0 | 0.0 | 0.00 | 0.00 | 0.00 | 22 | 1013.8 |
| 20260509183114 | 69 | 10 | 3.0 | 0.0 | 0.00 | 0.00 | 0.00 | 20 | 1013.8 |
| 20260509181542 | 69 | 27 | 4.0 | 0.0 | 0.00 | 0.00 | 0.00 | 21 | 1013.7 |
| 20260509180023 | 68 | 360 | 3.0 | 0.0 | 0.00 | 0.00 | 0.00 | 21 | 1013.7 |
| 20260509174535 | 68 | 5 | 2.0 | 0.0 | 0.00 | 0.00 | 0.00 | 22 | 1013.8 |